weather.gov     
National Weather Service

Terminal Aerodrome Forecast
NWS Homepage
This page is being discontinued on March 12, 2014.
The same data is available at this site. Please update your bookmarks.
Thank you, and we apologize for the inconvenience.
Please send an email to SR-SRH.Webmaster@noaa.gov with any concerns.


Current Version
Previous Version:    01  02  03  04  05  06  07  08  09  10  11  12  13  14  15  16  17  18  19  20  21  22  23  24  25  26  27  28  
[Printable]
615
FTAK31 PAFA 011724
TAFATA
TAF

FM020900
 25010KT P6SM VCSH BKN025 OVC045=


615
FTAK31 PAFA 011724
TAFATA
TAF
PATA 011724Z 0118/0218 22008KT P6SM OVC050
     FM012000 22010KT 3SM -RA BR BKN012 OVC025 WS020/22040KT
     FM020300 26015G25KT 6SM -RA BR BKN012 OVC025=

FM020900
 25010KT P6SM VCSH BKN025 OVC045=




615
FTAK31 PAFA 011724
TAFATA
TAF
PATA 011724Z 0118/0218 22008KT P6SM OVC050
     FM012000 22010KT 3SM -RA BR BKN012 OVC025 WS020/22040KT
     FM020300 26015G25KT 6SM -RA BR BKN012 OVC025=


U.S. Dept. of Commerce
NOAA National Weather Service
1325 East West Highway
Silver Spring, MD 20910
E-mail: w-nws.webmaster@noaa.gov
Page last modified: May 16, 2007
NATIONAL WEATHER SERVICE: for Safety, for Work, for Fun - FOR LIFE